[ ตารางข้อมูล ] [ Min-Max ] [ วันนี้2 ] [ วันนี้4 ] [ เทียบ-A 3วัน ] [ เทียบ-B 4วัน ]   

วันนี้2   [ ◀ ช่วงเก่ากว่า ] [ ช่วงที่ 49 ] [ ช่วงใหม่กว่า ▶ ] [ ล่าสุด ]    [ 3 ชั่วโมง ] [ 6 ชั่วโมง ] [ 12 ชั่วโมง ] [ 24 ชั่วโมง ]   วันนี้2

อุณภูมิในตู้ Knockdown4529  ราย 6 ชั่วโมง  ที่วัดได้ ในช่วงวันเวลา 20/08/2026 (23:01) ถึง 21/08/2026 (05:01) 
ความชื้นในตู้ Knockdown4529  ราย 6 ชั่วโมง  ที่วัดได้ ในช่วงวันเวลา 20/08/2026 (23:01) ถึง 21/08/2026 (05:01) 
การใช้ไฟฟ้าในตู้ Knockdown4529  ราย 6 ชั่วโมง  ที่วัดได้ ในช่วงวันเวลา 20/08/2026 (23:01) ถึง 21/08/2026 (05:01) 

  DS18B20SHTC3PZEM-004TWiFi 
IDDate d/m/Y & Timedata1
สูง
data2
ต่ำ
data3
นอก
temp
pcb
hum
pcb
VoltAmpWattrssiTime
 14557  21/08/2026 04:58:04  28.9  29.1  26.8  29.7  68.0  229.6  0.04  4.6  -77  04:58 
 14556  21/08/2026 04:53:19  29.0  29.1  26.6  29.9  68.0  228.6  0.04  4.6  -75  04:53 
 14555  21/08/2026 04:48:36  29.0  29.2  26.7  29.8  68.0  229.7  0.04  4.6  -78  04:48 
 14554  21/08/2026 04:43:53  29.0  29.2  26.9  29.9  67.9  228.8  0.04  4.6  -78  04:43 
 14553  21/08/2026 04:39:10  29.0  29.2  26.9  30.1  68.0  230.1  0.04  4.6  -74  04:39 
 14552  21/08/2026 04:34:24  29.1  29.2  26.8  29.9  67.9  230.6  0.04  4.6  -77  04:34 
 14551  21/08/2026 04:29:41  29.1  29.2  26.8  30.0  68.0  229.9  0.04  4.6  -78  04:29 
 14550  21/08/2026 04:24:57  29.1  29.2  26.9  29.9  67.9  230.9  0.04  4.6  -78  04:24 
 14549  21/08/2026 04:20:14  29.1  29.2  26.9  29.9  67.9  230.2  0.04  4.6  -79  04:20 
 14548  21/08/2026 04:15:30  29.1  29.2  26.9  30.0  68.0  231.3  0.04  4.6  -77  04:15 
 14547  21/08/2026 04:10:47  29.1  29.3  27.0  30.1  68.0  231.1  0.04  4.6  -78  04:10 
 14546  21/08/2026 04:06:04  29.1  29.3  27.0  30.1  68.0  229.7  0.04  4.6  -79  04:06 
 14545  21/08/2026 04:01:21  29.1  29.3  27.1  30.1  68.0  231.5  0.04  4.6  -77  04:01 
 14544  21/08/2026 03:56:38  29.2  29.4  27.0  30.0  68.0  230.7  0.04  4.6  -78  03:56 
 14543  21/08/2026 03:51:55  29.2  29.4  27.0  30.2  68.1  229.2  0.04  4.5  -77  03:51 
 14542  21/08/2026 03:47:12  29.2  29.4  26.9  29.9  68.0  231.4  0.04  4.6  -76  03:47 
 14541  21/08/2026 03:42:28  29.2  29.4  26.9  30.0  67.9  229.0  0.04  4.6  -77  03:42 
 14540  21/08/2026 03:37:45  29.2  29.4  27.0  30.2  68.0  228.7  0.04  4.6  -75  03:37 
 14539  21/08/2026 03:33:02  29.2  29.4  26.9  30.1  68.0  230.6  0.04  4.6  -78  03:33 
 14538  21/08/2026 03:28:18  29.3  29.4  27.0  30.1  68.0  230.0  0.04  4.6  -76  03:28 
 14537  21/08/2026 03:23:35  29.3  29.5  26.9  30.2  68.0  229.2  0.04  4.6  -79  03:23 
 14536  21/08/2026 03:18:51  29.3  29.5  27.0  30.2  68.0  230.9  0.04  4.6  -78  03:18 
 14535  21/08/2026 03:14:08  29.4  29.5  27.0  30.2  67.9  229.4  0.04  4.6  -77  03:14 
 14534  21/08/2026 03:09:24  29.4  29.6  27.0  30.4  68.0  230.8  0.04  4.6  -77  03:09 

Data every 5 minute.


ใช้เวลาประมวลผล 0.01548 วินาที